Lapse_Rate
5.3 5.2 5.3 5.5 5.5 5.4 5.5 5.5 5.6 5.8 5.7 5.6 5.6 5.5 5.5 5.6 5.6 5.5 5.4 5.4 5.5 5.6 5.4 5.4 5.2 5.3 4.9 4.8 5.0 5.0 5.4 5.6 5.5 5.4 5.7 5.8 6.0 5.9 5.8 5.9 6.0 6.0 6.2
5.5 5.6 5.7 5.8 5.7 5.8 5.8 5.8 5.9 5.9 5.9 5.7 5.6 5.8 5.8 5.8 5.8 5.8 5.7 5.7 5.9 5.8 5.4 5.2 5.4 5.4 5.3 5.0 5.0 5.1 5.2 5.0 5.6 5.4 5.4 5.6 5.7 6.0 5.9 5.9 5.9 5.9 6.0
5.6 5.8 5.9 5.9 5.9 5.9 6.0 6.0 6.0 6.0 6.1 6.1 6.0 5.7 5.9 5.9 5.6 5.7 5.4 5.3 5.6 5.9 5.9 5.3 5.4 5.2 5.3 5.2 5.1 5.1 5.0 5.0 4.9 5.3 5.5 5.5 5.6 5.6 5.9 5.9 6.1 5.9 5.9
5.6 5.9 6.1 6.1 6.0 5.9 6.0 5.9 5.9 6.1 6.1 6.0 6.0 6.1 5.8 5.9 5.7 5.7 5.6 5.7 5.8 5.7 5.8 5.7 5.5 5.4 5.4 5.3 5.2 5.1 5.2 4.8 4.9 5.0 5.4 5.4 5.6 5.6 5.6 5.9 5.9 6.1 5.9
5.8 6.1 6.2 6.1 6.0 6.0 5.9 5.9 6.0 6.0 6.2 6.1 5.7 5.9 6.0 6.0 6.0 5.9 5.9 5.9 5.9 5.7 5.4 5.4 5.4 5.6 5.4 5.4 5.3 5.2 5.1 5.0 4.8 5.0 5.2 5.5 5.7 5.5 5.6 5.6 5.9 5.9 6.0
6.0 6.1 6.1 6.1 6.0 6.0 6.2 6.1 6.3 6.2 5.7 5.7 6.0 6.3 6.2 5.8 5.6 5.8 5.9 5.9 5.9 5.8 5.8 5.6 5.4 5.4 5.3 5.4 5.2 5.1 4.9 5.0 5.1 4.7 4.9 5.3 5.5 5.7 5.6 5.6 5.7 5.9 5.9
6.0 6.0 6.1 6.0 5.9 6.1 6.2 6.2 6.0 6.0 6.2 6.3 6.5 6.1 6.0 6.3 5.8 5.8 5.9 6.1 6.2 5.9 5.6 5.4 5.4 5.4 5.3 5.2 5.0 5.0 4.9 4.9 5.0 5.2 4.7 4.6 5.2 5.5 5.6 5.6 5.6 5.7 5.9
6.1 6.1 6.1 6.1 6.1 6.4 6.4 6.1 6.2 6.2 6.4 6.4 6.5 6.7 6.0 6.0 5.3 5.2 6.0 6.2 6.2 6.0 5.9 5.6 5.7 5.6 5.3 5.2 4.9 4.9 4.9 4.9 4.8 4.9 5.0 4.9 5.0 5.3 5.5 5.6 5.7 5.7 5.7
6.4 6.5 6.4 6.4 6.6 6.6 6.5 6.4 6.5 6.7 6.7 6.7 6.8 6.8 6.6 6.3 5.8 5.7 6.0 6.3 6.5 6.1 6.0 5.8 6.0 5.6 5.4 5.2 5.1 5.2 5.0 5.0 5.1 4.9 5.0 5.0 4.8 5.0 5.3 5.5 5.7 5.6 5.7
6.7 6.6 6.7 6.9 7.0 6.8 6.8 6.8 6.9 6.7 6.8 6.6 6.4 6.5 6.3 6.4 6.5 6.5 6.3 6.3 6.4 6.4 6.2 6.1 6.0 5.8 5.5 5.2 5.0 5.2 5.2 5.0 5.0 4.9 4.8 4.8 4.7 4.8 5.3 5.4 5.6 5.7 5.7
6.5 6.6 6.9 7.0 7.0 6.9 6.9 6.7 6.7 6.7 6.5 6.6 6.6 6.5 6.5 6.5 6.8 6.8 6.8 6.5 6.4 6.3 6.3 6.3 6.1 6.1 5.7 5.5 5.6 5.2 5.1 5.1 5.2 4.9 4.9 4.8 4.9 4.9 4.9 5.2 5.3 5.5 5.5
6.5 6.5 6.5 6.6 6.8 6.9 6.8 6.5 6.6 6.6 6.6 6.5 6.5 6.5 6.6 6.7 6.6 6.5 6.4 6.4 6.3 6.3 6.2 6.2 6.3 6.1 6.1 5.9 5.7 5.6 5.6 5.7 5.7 5.6 5.3 4.8 4.8 4.8 4.8 5.0 5.2 5.5 5.5
6.2 6.2 6.3 6.3 6.3 6.6 6.6 6.6 6.5 6.6 6.4 6.6 6.6 6.5 6.6 6.8 6.9 7.0 6.9 6.8 6.6 6.3 6.2 6.1 6.0 6.1 6.1 6.1 5.9 5.8 5.8 5.8 5.7 5.6 5.4 5.3 5.1 4.8 4.8 5.0 5.1 5.2 5.4
6.4 6.3 6.3 6.3 6.4 6.4 6.6 6.5 6.3 6.4 6.4 6.2 6.4 6.6 6.5 6.6 6.9 6.9 6.7 6.8 7.1 6.8 5.6 6.5 5.8 6.0 6.1 6.1 6.1 5.9 5.8 5.7 5.7 5.5 5.5 5.3 5.3 5.1 5.1 5.0 5.0 4.8 5.2
6.3 6.2 6.2 6.2 6.2 6.2 6.3 6.5 6.2 6.3 6.2 6.3 6.3 6.4 6.4 6.7 6.9 6.9 6.9 6.8 6.7 6.9 6.7 6.4 6.2 6.0 6.1 6.1 6.1 6.1 6.1 5.9 5.8 5.8 5.6 5.4 5.3 5.1 4.9 4.8 4.9 5.1 5.0
6.5 6.5 6.4 6.3 6.2 6.2 6.2 6.4 6.5 6.5 6.4 6.5 6.4 6.4 6.6 6.6 7.0 6.9 7.0 7.0 7.0 7.0 7.2 6.4 6.3 6.2 5.8 5.8 5.9 6.1 5.9 6.0 5.9 5.7 5.7 5.6 5.5 5.1 5.1 4.9 4.8 4.8 4.8
6.6 6.6 6.6 6.6 6.6 6.7 6.7 6.9 7.1 7.1 7.3 7.5 7.4 7.2 6.9 6.9 7.0 7.0 6.8 7.0 6.8 6.6 6.9 7.1 6.9 6.7 6.5 6.1 5.8 5.9 6.0 6.0 6.1 6.0 5.8 5.6 5.6 5.4 5.1 5.1 5.1 4.8 4.9
6.8 6.8 7.0 7.1 7.1 7.1 7.3 7.3 7.4 7.5 7.5 7.6 7.8 7.7 7.3 7.1 7.0 6.9 6.8 6.7 6.8 6.9 6.8 7.0 7.2 7.1 7.2 6.2 5.9 5.8 5.7 5.8 5.7 5.8 5.8 5.9 5.7 5.7 5.3 4.9 5.0 4.9 4.9
7.1 7.1 7.2 7.3 7.1 7.2 7.5 7.6 7.8 8.1 7.9 8.0 7.8 7.6 7.8 7.5 7.6 7.4 7.1 6.9 6.9 6.9 6.9 6.8 6.9 6.9 6.9 6.8 6.4 5.9 5.9 5.7 5.6 5.7 5.7 5.5 5.6 5.8 5.7 5.3 5.0 5.0 5.2
7.1 7.1 7.4 7.4 7.4 7.4 7.2 7.4 7.8 7.7 7.8 7.2 7.0 7.2 7.1 7.2 7.3 7.4 7.2 7.2 7.2 7.0 6.7 6.7 6.7 6.8 6.7 6.3 6.5 6.2 6.1 5.8 4.8 5.4 4.9 5.6 5.6 5.4 5.8 5.6 5.3 5.2 5.2
7.3 7.4 7.6 7.6 7.5 7.5 7.1 7.1 6.9 6.9 6.7 6.6 6.8 7.1 6.9 6.8 6.9 6.9 6.8 7.3 7.3 7.2 7.3 7.1 7.0 6.8 6.8 6.5 6.2 6.3 5.8 5.8 5.8 5.5 4.5 4.9 5.0 5.5 5.3 5.7 5.6 5.3 5.2
7.5 7.6 7.7 7.7 7.4 7.1 7.1 6.7 6.6 6.3 6.3 6.0 5.6 5.8 5.5 4.8 5.5 6.5 6.6 6.7 6.9 7.1 7.2 7.2 7.0 6.9 6.8 6.9 6.7 6.5 6.2 6.0 5.7 5.2 5.2 5.3 5.2 5.3 5.3 5.5 5.8 5.9 5.3
7.4 7.6 7.5 7.3 7.1 7.2 7.2 6.9 6.7 6.4 6.2 5.9 5.5 5.0 4.8 4.8 5.2 5.4 5.8 6.1 6.3 6.6 6.1 5.8 6.2 6.5 6.4 6.3 6.6 6.9 6.7 6.4 6.2 5.8 5.5 5.5 5.2 5.2 5.0 5.2 5.7 6.0 6.0
7.6 7.4 7.3 7.4 7.2 7.0 6.9 7.0 6.8 6.7 6.2 5.7 5.2 5.2 5.1 5.1 5.2 5.5 6.1 6.1 5.8 5.6 5.6 5.8 5.6 5.5 5.4 5.8 5.9 5.8 6.0 6.2 6.2 6.0 5.5 5.6 6.1 5.7 5.3 5.0 5.1 6.3 6.2
7.7 7.4 7.6 6.8 6.9 6.5 6.8 6.7 6.7 6.3 6.2 5.6 5.3 5.3 5.4 5.5 5.7 5.6 5.5 5.4 5.4 5.6 5.4 5.6 5.8 5.5 5.6 5.2 5.0 5.1 5.4 5.1 5.3 5.5 5.6 4.4 5.5 6.3 6.0 6.2 5.2 5.9 6.2
7.7 8.0 8.0 7.3 6.8 6.9 6.4 6.6 6.7 6.3 5.9 5.4 5.5 5.6 5.7 5.8 5.5 5.6 5.3 5.1 5.1 5.0 5.2 5.1 5.1 5.0 5.1 5.0 4.9 5.0 5.0 5.0 5.1 5.3 5.4 5.3 5.3 5.4 5.7 6.3 5.9 6.2 6.1
Wind_Speed
2 4 4 2 4 2 3 4 3 6 4 7 8 9 9 9 10 11 8 15 17 21 21 18 19 20 17 17 16 12 12 16 17 18 18 18 17 16 15 14 12 12 12
4 3 3 4 3 4 2 4 4 5 4 7 4 8 8 8 9 10 10 10 18 19 19 21 21 21 21 20 18 16 13 14 18 19 20 19 18 17 16 15 15 14 13
7 5 4 4 4 3 6 6 6 5 4 6 5 6 8 8 9 8 9 13 10 20 21 22 22 24 24 26 24 21 19 15 17 20 20 20 19 19 17 18 16 16 15
7 7 5 4 3 5 5 5 5 4 6 6 5 4 6 6 5 6 11 10 12 10 16 22 24 26 28 26 27 24 21 16 15 21 21 21 21 21 20 18 18 17 16
10 10 6 4 5 5 3 4 4 4 5 6 6 5 5 4 6 7 5 7 10 11 13 14 22 25 28 29 27 25 23 23 20 20 21 21 21 21 22 21 20 19 18
11 9 9 6 5 1 5 3 4 6 5 5 7 7 6 4 2 3 6 5 4 8 11 13 14 21 28 31 28 24 24 25 26 24 21 19 20 22 23 23 23 22 21
12 9 8 4 5 3 4 4 5 4 7 5 7 6 2 1 1 3 3 3 2 5 6 9 12 14 17 27 27 24 22 24 30 26 22 19 20 20 22 24 23 23 23
11 10 7 4 4 5 4 5 4 5 5 5 5 8 4 2 6 9 5 3 5 5 5 9 10 12 13 11 21 26 22 22 27 30 27 26 23 21 22 23 24 25 24
10 10 8 6 5 5 4 2 4 4 4 1 2 3 4 4 4 3 7 5 6 7 7 8 1 9 11 11 13 17 24 22 25 30 30 31 26 22 22 23 25 25 26
10 10 9 8 6 5 4 5 5 4 4 5 6 3 4 4 3 4 8 5 6 5 7 7 4 3 8 10 12 14 17 21 24 27 30 32 28 24 22 22 23 26 27
9 10 9 8 8 7 6 6 5 5 5 5 5 7 6 5 2 4 7 7 5 5 5 5 4 2 6 7 8 9 15 22 25 27 30 29 31 27 26 24 22 24 26
8 9 10 8 7 7 6 6 5 7 7 7 5 4 5 4 5 6 8 7 6 6 5 3 2 1 4 7 10 12 17 19 23 29 32 30 30 31 34 34 28 27 26
8 8 8 7 7 8 7 6 4 5 5 4 5 5 2 4 5 6 5 7 5 6 3 3 1 0 2 6 8 17 19 19 21 23 29 30 31 30 33 35 37 34 30
9 10 8 8 8 7 7 6 6 5 3 2 4 5 5 4 4 5 5 7 7 7 4 2 4 2 3 5 4 14 15 22 23 23 27 31 33 33 34 34 33 35 31
9 9 9 9 7 6 7 6 6 5 4 3 4 3 4 4 4 4 5 6 6 8 8 5 5 2 5 6 8 11 14 16 28 27 26 28 30 32 33 36 32 33 34
12 10 10 9 8 7 7 6 6 5 5 4 5 3 4 4 4 3 5 4 4 7 9 8 8 8 8 10 11 11 15 15 16 22 24 25 26 29 30 29 26 29 34
12 11 11 10 10 9 8 8 8 7 8 6 6 4 3 0 4 5 4 5 4 6 9 10 11 11 6 10 10 13 14 15 16 28 27 25 23 23 25 23 23 20 24
14 13 11 11 10 10 10 9 9 7 8 7 7 5 3 1 3 2 4 5 7 6 5 9 8 10 12 11 12 13 11 15 14 13 28 24 23 22 21 22 23 23 25
14 14 13 12 12 12 11 10 9 9 8 7 7 5 4 5 5 1 3 5 6 5 6 7 9 7 9 9 10 12 11 11 14 13 23 24 24 24 26 27 26 27 27
14 13 13 13 13 12 11 10 9 8 8 7 4 4 5 5 4 3 2 3 4 6 5 7 8 8 7 8 7 8 10 11 9 11 8 15 22 25 26 27 28 28 31
13 13 14 12 12 11 9 10 9 9 7 4 6 5 5 2 1 1 3 1 3 6 7 8 9 9 7 9 9 7 9 9 11 12 11 9 9 10 15 24 26 28 29
13 13 12 11 11 8 9 5 7 7 6 7 6 6 4 8 8 6 7 6 5 6 8 8 10 11 11 8 10 8 11 11 11 9 7 11 7 8 9 14 27 28 30
14 13 10 8 9 8 6 5 5 7 7 6 6 5 5 3 2 5 10 8 10 11 11 9 11 12 12 10 10 11 11 11 12 12 13 12 13 11 10 14 25 31 31
10 5 3 2 1 2 4 5 5 6 7 5 4 4 3 4 3 5 8 9 9 8 9 9 11 12 11 10 10 11 12 12 13 13 12 13 10 12 12 9 26 27 28
14 15 14 9 9 2 6 3 4 6 6 6 6 6 5 5 8 4 9 10 11 11 9 10 9 11 14 16 14 10 12 13 14 13 12 13 12 12 12 12 9 24 27
16 11 15 16 9 6 8 5 3 7 6 7 8 7 8 6 10 8 8 9 11 12 13 14 14 14 14 15 20 14 11 13 14 14 12 12 12 13 13 13 13 10 12
Wind_Direction
166 153 222 206 314 204 186 253 278 281 286 278 261 265 259 262 264 266 260 194 212 220 221 229 214 215 218 216 229 238 246 232 224 223 220 215 210 203 205 193 191 184 183
195 197 211 236 242 256 267 262 279 298 318 292 312 288 280 281 258 261 252 228 206 221 223 228 217 220 223 219 221 220 228 246 237 228 228 220 215 208 202 201 198 195 189
198 271 237 255 260 286 274 254 262 268 290 299 297 278 279 256 255 259 268 274 233 211 220 221 223 219 225 226 222 213 208 225 253 245 233 229 218 213 212 204 203 200 197
239 242 245 254 274 278 272 280 290 295 328 311 289 293 300 298 270 261 255 247 253 243 226 230 226 219 229 227 227 221 205 200 233 261 250 233 225 215 214 210 206 205 203
234 246 262 259 252 271 275 284 303 304 285 314 318 310 294 257 265 242 265 261 243 241 242 217 233 227 230 229 229 223 212 190 217 235 255 250 232 223 216 213 209 208 208
232 236 258 268 274 4 291 301 332 322 315 297 319 306 293 296 262 239 277 270 247 232 244 249 234 229 230 233 232 224 216 201 199 222 232 254 250 233 220 216 213 210 207
240 227 250 235 232 258 273 295 279 276 317 358 296 342 293 220 147 268 298 278 278 254 270 257 255 247 226 220 232 230 218 206 203 212 225 238 254 247 229 219 215 213 211
237 237 242 259 198 271 237 277 302 305 303 8 333 309 1 140 13 325 340 281 348 313 270 248 257 268 257 239 223 222 221 206 212 202 213 234 240 246 233 225 219 216 212
236 231 235 244 239 252 262 245 241 287 316 321 296 336 341 30 313 278 288 329 339 332 319 327 204 232 254 250 251 214 212 206 213 203 208 226 241 238 232 226 222 217 216
236 225 220 222 232 266 287 249 229 290 279 319 318 179 298 313 339 303 336 325 311 288 7 337 348 196 234 237 235 248 199 201 214 212 207 220 230 241 240 234 227 221 216
235 227 218 220 230 236 234 255 266 252 275 267 305 318 327 328 224 306 327 327 323 344 6 359 10 135 209 229 248 231 202 208 210 214 214 221 229 234 243 241 234 228 222
216 212 223 220 230 244 231 244 240 244 241 271 293 308 301 323 325 316 326 340 325 348 345 8 354 70 185 202 221 224 215 214 215 213 216 218 225 230 234 242 241 231 226
221 208 204 213 227 219 235 238 227 252 249 247 273 280 306 282 287 292 294 310 316 311 296 271 359 76 194 204 222 208 218 225 229 230 224 218 222 226 231 232 233 234 227
220 216 205 219 213 211 218 224 249 256 288 245 275 306 287 263 286 295 294 307 310 312 322 228 312 228 216 219 269 197 240 221 232 234 225 223 225 227 230 233 233 219 227
233 226 228 228 223 221 230 228 256 270 262 255 283 255 287 295 292 295 274 289 314 310 319 324 317 239 253 254 236 243 245 234 220 229 233 231 231 232 232 229 231 225 225
223 243 227 235 233 229 239 235 257 232 244 266 291 320 299 311 296 252 266 278 241 280 297 310 308 320 322 309 289 260 263 268 231 228 229 233 235 237 236 226 230 230 225
224 223 227 233 231 236 238 238 242 243 244 248 218 228 256 287 319 308 306 280 286 280 285 303 321 312 311 291 292 286 269 254 254 218 222 225 231 229 224 209 224 232 235
220 222 223 226 232 234 234 241 246 242 250 235 243 206 203 227 284 242 285 310 309 319 294 293 302 304 320 320 303 296 282 279 275 218 204 211 215 217 217 211 213 223 231
221 221 216 223 225 227 233 246 243 250 240 232 232 217 190 199 190 242 280 302 305 303 283 272 288 279 304 313 309 303 292 286 275 268 200 203 209 215 213 218 219 219 228
217 221 225 222 229 233 240 243 245 237 236 235 224 224 214 215 222 197 213 284 267 294 302 287 310 314 296 294 282 303 308 306 305 285 271 227 199 210 215 214 218 219 221
209 218 222 224 227 230 230 224 228 232 234 212 208 226 217 227 277 313 279 267 281 288 310 305 304 305 304 330 320 321 287 289 300 286 269 271 210 207 215 219 222 221 222
205 211 220 215 217 230 136 184 266 241 209 203 218 213 215 187 215 197 235 256 291 274 288 298 301 311 297 306 303 318 311 308 304 308 339 306 300 225 235 231 212 219 221
197 204 206 209 222 229 87 149 200 229 203 220 216 228 262 78 319 270 210 222 240 231 242 287 290 293 304 307 313 297 301 309 295 306 307 288 287 281 219 216 214 202 216
191 148 98 75 126 79 118 154 195 241 220 227 235 225 247 278 355 312 296 291 294 285 254 252 266 285 291 299 295 290 285 278 273 268 262 269 279 280 291 258 182 193 206
109 104 93 12 307 150 73 99 242 222 240 228 224 233 239 260 68 7 281 281 286 290 296 219 241 262 260 261 261 284 279 283 288 286 288 286 279 276 274 281 241 187 197
135 147 139 163 177 149 38 32 280 257 234 237 206 221 99 51 34 5 320 307 297 290 298 303 299 281 258 259 228 238 269 276 284 282 274 280 281 284 272 259 243 241 212